Regional Weather Roundup
Issued by NWS

Home | Current Version | Previous Version | Graphics & Text | Print | Product List | Glossary On
Versions: 1 2 3 4 5 6 7 8 9 10 11 12 13 14 15 16 17 18 19 20 21 22 23 24 25 26 27 28 29 30 31 32 33 34 35 36 37 38 39 40 41 42 43 44 45 46 47 48 49 50
000
ASUS43 KBIS 300010
RWRND

NORTH DAKOTA REGIONAL WEATHER ROUNDUP
NATIONAL WEATHER SERVICE BISMARCK ND
700 PM CDT TUE JUL 29 2014

NOTE: "FAIR" INDICATES FEW OR NO CLOUDS BELOW 12,000 FEET WITH NO
SIGNIFICANT WEATHER AND/OR OBSTRUCTIONS TO VISIBILITY.


NDZ001>003-009>011-017-300100-
NORTHWEST NORTH DAKOTA

CITY           SKY/WX    TMP DP  RH WIND       PRES   REMARKS
WILLISTON      MOSUNNY   83  53  35 N13       30.15S
6HR MIN TEMP:  81; 6HR MAX TEMP:  86;

MINOT          MOSUNNY   72  63  73 CALM      30.14F
MINOT AFB      MOSUNNY   73  64  75 S2        30.14F
$$

NDZ018>021-031>035-040>046-300100-
SOUTHWEST NORTH DAKOTA

CITY           SKY/WX    TMP DP  RH WIND       PRES   REMARKS
BISMARCK       PTSUNNY   78  55  44 E13       30.14S
6HR MIN TEMP:  75; 6HR MAX TEMP:  81;

DICKINSON      MOSUNNY   79  56  45 E13G21    30.12F
GARRISON         N/A     74  60  61 E6        30.15S
6HR MIN TEMP:  66; 6HR MAX TEMP:  79;

HETTINGER ARPT MOSUNNY   81  48  31 CALM      30.15F
$$

NDZ004>008-012>016-024-026-027-054-300100-
NORTHEAST NORTH DAKOTA

CITY           SKY/WX    TMP DP  RH WIND       PRES   REMARKS
GRAND FORKS    MOSUNNY   76  54  46 N7        30.09F
GRND FRKS AFB  SUNNY     75  56  50 N9        30.11F
DEVILS LAKE    SUNNY     73  52  46 NE5       30.12F
$$

NDZ022-023-025-028>030-036>039-047>053-300100-
SOUTHEAST NORTH DAKOTA

CITY           SKY/WX    TMP DP  RH WIND       PRES   REMARKS
FARGO          MOSUNNY   76  54  46 NE7       30.09F
6HR MIN TEMP:  74; 6HR MAX TEMP:  81;

JAMESTOWN      SUNNY     75  52  44 N5        30.12F
$$



USA.gov is the U.S. government's official web portal to all federal, state and local government web resources and services.